Location: York
(31.8935°S, 116.7682°E)
Time: 13:49:26
(UTC+08:00)

deb Explorer IX - Visible Passes

Search period start: 15 June 2021 00:00
Search period end: 25 June 2021 00:00
Orbit: 542 x 1097 km, 38.8° (Epoch: 14 June)

Date Brightness Start Highest point End Pass type
(mag) Time Alt. Az. Time Alt. Az. Time Alt. Az.
15 Jun ? 17:41:20 10° NNW 17:47:13 28° NE 17:53:11 10° E visible
15 Jun ? 19:26:51 10° WNW 19:34:12 82° NNE 19:34:57 72° E visible
15 Jun ? 21:14:51 10° W 21:16:12 16° W 21:16:12 16° W visible
16 Jun ? 19:02:50 10° WNW 19:10:09 82° NNE 19:12:29 47° ESE visible
16 Jun ? 20:50:47 10° W 20:53:44 25° WSW 20:53:44 25° WSW visible
17 Jun ? 18:38:50 10° WNW 18:46:06 82° NNE 18:49:57 31° ESE visible
17 Jun ? 20:26:43 10° W 20:31:12 36° WSW 20:31:12 36° WSW visible
18 Jun ? 18:14:50 10° WNW 18:22:02 82° NNE 18:27:24 20° ESE visible
18 Jun ? 20:02:40 10° W 20:08:38 49° SW 20:08:38 49° SW visible
19 Jun ? 17:50:52 10° WNW 17:57:58 82° NNE 18:04:48 12° ESE visible
19 Jun ? 19:38:38 10° W 19:45:48 54° S 19:46:03 54° S visible
19 Jun ? 21:26:56 10° WSW 21:27:17 11° WSW 21:27:17 11° WSW visible
20 Jun ? 19:14:36 10° W 19:21:44 54° S 19:23:25 45° SSE visible
20 Jun ? 21:02:51 10° WSW 21:04:40 18° WSW 21:04:40 18° WSW visible
21 Jun ? 18:50:36 10° W 18:57:40 54° S 19:00:47 33° SE visible
21 Jun ? 20:38:47 10° WSW 20:42:02 27° SW 20:42:02 27° SW visible
22 Jun ? 18:26:37 10° W 18:33:36 54° S 18:38:10 23° ESE visible
22 Jun ? 20:14:43 10° WSW 20:19:24 38° SW 20:19:24 38° SW visible
23 Jun ? 18:02:39 10° W 18:09:32 54° S 18:15:32 15° ESE visible
23 Jun ? 19:50:40 10° WSW 19:56:47 49° SSW 19:56:47 49° SSW visible
24 Jun ? 17:38:41 10° W 17:45:27 54° S 17:52:39 10° ESE visible
24 Jun ? 19:26:39 10° WSW 19:33:43 52° S 19:34:11 51° SSE visible
24 Jun ? 21:14:14 10° WSW 21:15:26 16° WSW 21:15:26 16° WSW visible
